TimeEST,TemperatureF,Dew PointF,Humidity,Sea Level PressureIn,VisibilityMPH,Wind Direction,Wind SpeedMPH,Gust SpeedMPH,PrecipitationIn,Events,Conditions,WindDirDegrees,DateUTC
12:15 AM,25.5,25.5,100,30.38,10.0,Calm,Calm,-,N/A,,Clear,0,2013-01-09 05:15:00
12:35 AM,27.1,27.1,100,30.38,10.0,Calm,Calm,-,N/A,,Clear,0,2013-01-09 05:35:00
12:55 AM,27.5,27.5,100,30.36,10.0,Calm,Calm,-,N/A,,Clear,0,2013-01-09 05:55:00
1:15 AM,25.2,25.2,100,30.36,10.0,Calm,Calm,-,N/A,,Clear,0,2013-01-09 06:15:00
1:35 AM,25.0,25.0,100,30.35,10.0,Calm,Calm,-,N/A,,Clear,0,2013-01-09 06:35:00
1:55 AM,24.6,24.6,100,30.35,10.0,Calm,Calm,-,N/A,,Clear,0,2013-01-09 06:55:00
2:55 AM,25.7,25.7,100,30.36,10.0,Calm,Calm,-,N/A,,Clear,0,2013-01-09 07:55:00
3:15 AM,25.5,25.5,100,30.36,10.0,Calm,Calm,-,N/A,,Clear,0,2013-01-09 08:15:00
3:35 AM,25.7,25.7,100,30.35,10.0,Calm,Calm,-,N/A,,Clear,0,2013-01-09 08:35:00
3:55 AM,24.6,24.6,100,30.35,10.0,Calm,Calm,-,N/A,,Clear,0,2013-01-09 08:55:00
4:15 AM,26.2,26.2,100,30.34,10.0,Calm,Calm,-,N/A,,Clear,0,2013-01-09 09:15:00
4:35 AM,25.7,25.7,100,30.34,10.0,Calm,Calm,-,N/A,,Clear,0,2013-01-09 09:35:00
4:55 AM,25.5,25.5,100,30.34,10.0,Calm,Calm,-,N/A,,Clear,0,2013-01-09 09:55:00
5:15 AM,26.1,26.1,100,30.34,10.0,Calm,Calm,-,N/A,,Clear,0,2013-01-09 10:15:00
5:55 AM,26.2,26.2,100,30.33,10.0,Calm,Calm,-,N/A,,Clear,0,2013-01-09 10:55:00
6:15 AM,25.9,25.9,100,30.34,10.0,Calm,Calm,-,N/A,,Clear,0,2013-01-09 11:15:00
6:35 AM,26.8,26.8,100,30.34,10.0,Calm,Calm,-,N/A,,Clear,0,2013-01-09 11:35:00
6:55 AM,27.5,27.5,100,30.34,7.0,Calm,Calm,-,N/A,,Clear,0,2013-01-09 11:55:00
7:15 AM,25.9,25.9,100,30.34,10.0,Calm,Calm,-,N/A,,Clear,0,2013-01-09 12:15:00
7:35 AM,25.7,25.7,100,30.35,7.0,Calm,Calm,-,N/A,,Scattered Clouds,0,2013-01-09 12:35:00
7:55 AM,26.2,26.2,100,30.36,10.0,Calm,Calm,-,N/A,,Scattered Clouds,0,2013-01-09 12:55:00
8:15 AM,28.8,28.8,100,30.36,7.0,Calm,Calm,-,N/A,,Clear,0,2013-01-09 13:15:00
8:35 AM,32.0,32.0,100,30.36,7.0,Calm,Calm,-,N/A,,Clear,0,2013-01-09 13:35:00
8:55 AM,33.3,33.3,100,30.36,7.0,Calm,Calm,-,N/A,,Clear,0,2013-01-09 13:55:00
9:15 AM,34.7,34.7,100,30.36,7.0,Calm,Calm,-,N/A,,Clear,0,2013-01-09 14:15:00
9:35 AM,35.6,35.2,99,30.36,7.0,Calm,Calm,-,N/A,,Clear,0,2013-01-09 14:35:00
10:15 AM,39.6,38.5,96,30.36,10.0,Calm,Calm,-,N/A,,Mostly Cloudy,0,2013-01-09 15:15:00
10:35 AM,41.0,39.0,93,30.35,10.0,Calm,Calm,-,N/A,,Mostly Cloudy,0,2013-01-09 15:35:00
10:55 AM,42.6,39.7,90,30.35,10.0,SW,3.5,-,N/A,,Mostly Cloudy,230,2013-01-09 15:55:00
11:15 AM,43.7,40.3,88,30.34,10.0,Calm,Calm,-,N/A,,Mostly Cloudy,0,2013-01-09 16:15:00
11:35 AM,44.8,40.8,86,30.33,10.0,Calm,Calm,-,N/A,,Overcast,0,2013-01-09 16:35:00
11:55 AM,45.3,41.2,85,30.31,10.0,Calm,Calm,-,N/A,,Scattered Clouds,0,2013-01-09 16:55:00
12:15 PM,46.2,41.5,84,30.30,10.0,WNW,3.5,-,N/A,,Scattered Clouds,290,2013-01-09 17:15:00
12:35 PM,46.2,41.5,84,30.30,10.0,Calm,Calm,-,N/A,,Mostly Cloudy,0,2013-01-09 17:35:00
12:55 PM,46.6,42.3,85,30.30,10.0,NW,3.5,-,N/A,,Mostly Cloudy,320,2013-01-09 17:55:00
1:15 PM,46.9,42.3,84,30.30,10.0,Calm,Calm,-,N/A,,Mostly Cloudy,0,2013-01-09 18:15:00
1:35 PM,47.3,42.4,83,30.30,10.0,Calm,Calm,-,N/A,,Overcast,0,2013-01-09 18:35:00
1:55 PM,47.3,42.4,83,30.29,10.0,Calm,Calm,-,N/A,,Overcast,0,2013-01-09 18:55:00
2:15 PM,47.3,42.6,84,30.30,10.0,Calm,Calm,-,N/A,,Overcast,0,2013-01-09 19:15:00
2:35 PM,47.3,43.2,86,30.29,10.0,Calm,Calm,-,N/A,,Overcast,0,2013-01-09 19:35:00
2:55 PM,46.9,43.2,87,30.28,10.0,Calm,Calm,-,N/A,,Overcast,0,2013-01-09 19:55:00
3:15 PM,46.9,43.0,86,30.26,10.0,South,4.6,-,N/A,,Overcast,180,2013-01-09 20:15:00
3:35 PM,47.3,43.0,85,30.24,10.0,South,3.5,-,N/A,,Overcast,170,2013-01-09 20:35:00
3:55 PM,48.4,44.1,85,30.25,10.0,WNW,3.5,-,N/A,,Mostly Cloudy,290,2013-01-09 20:55:00
4:15 PM,46.8,43.5,88,30.25,10.0,Calm,Calm,-,N/A,,Scattered Clouds,0,2013-01-09 21:15:00
4:35 PM,46.4,43.5,90,30.25,10.0,Calm,Calm,-,N/A,,Clear,0,2013-01-09 21:35:00
4:55 PM,46.8,43.7,89,30.25,10.0,Calm,Calm,-,N/A,,Clear,0,2013-01-09 21:55:00
5:15 PM,45.1,43.0,92,30.25,10.0,Calm,Calm,-,N/A,,Clear,0,2013-01-09 22:15:00
5:35 PM,41.7,40.5,95,30.25,10.0,Calm,Calm,-,N/A,,Clear,0,2013-01-09 22:35:00
5:55 PM,39.0,38.8,99,30.24,10.0,Calm,Calm,-,N/A,,Clear,0,2013-01-09 22:55:00
6:15 PM,40.1,40.1,100,30.25,10.0,Calm,Calm,-,N/A,,Clear,0,2013-01-09 23:15:00
6:35 PM,37.0,37.0,100,30.26,10.0,Calm,Calm,-,N/A,,Clear,0,2013-01-09 23:35:00
6:55 PM,37.8,37.8,100,30.28,10.0,Calm,Calm,-,N/A,,Clear,0,2013-01-09 23:55:00
7:15 PM,38.1,38.1,100,30.29,10.0,Calm,Calm,-,N/A,,Clear,0,2013-01-10 00:15:00
7:35 PM,39.0,39.0,100,30.30,10.0,Calm,Calm,-,N/A,,Clear,0,2013-01-10 00:35:00
7:55 PM,37.0,37.0,100,30.30,10.0,Calm,Calm,-,N/A,,Clear,0,2013-01-10 00:55:00
8:15 PM,37.0,37.0,100,30.31,10.0,Calm,Calm,-,N/A,,Clear,0,2013-01-10 01:15:00
8:35 PM,37.8,37.8,100,30.31,10.0,Calm,Calm,-,N/A,,Clear,0,2013-01-10 01:35:00
8:55 PM,42.6,42.3,99,30.32,10.0,ESE,3.5,-,N/A,,Clear,120,2013-01-10 01:55:00
9:15 PM,40.6,39.9,97,30.33,10.0,Calm,Calm,-,N/A,,Clear,0,2013-01-10 02:15:00
9:35 PM,39.6,39.6,100,30.33,10.0,ENE,3.5,-,N/A,,Clear,70,2013-01-10 02:35:00
9:55 PM,37.6,37.6,100,30.34,7.0,Calm,Calm,-,N/A,,Clear,0,2013-01-10 02:55:00
10:15 PM,37.4,37.4,100,30.35,10.0,Calm,Calm,-,N/A,,Clear,0,2013-01-10 03:15:00
10:35 PM,37.2,37.2,100,30.36,7.0,Calm,Calm,-,N/A,,Clear,0,2013-01-10 03:35:00
10:55 PM,38.1,38.1,100,30.36,7.0,Calm,Calm,-,N/A,,Clear,0,2013-01-10 03:55:00
11:15 PM,39.2,39.2,100,30.37,7.0,SE,4.6,-,N/A,,Clear,130,2013-01-10 04:15:00
11:35 PM,43.0,42.4,98,30.38,10.0,Calm,Calm,-,N/A,,Clear,0,2013-01-10 04:35:00
11:55 PM,38.3,38.3,100,30.39,10.0,Calm,Calm,-,N/A,,Clear,0,2013-01-10 04:55:00